Date,TemperatureHighF,TemperatureAvgF,TemperatureLowF,DewpointHighF,DewpointAvgF,DewpointLowF,HumidityHigh,HumidityAvg,HumidityLow,PressureMaxIn,PressureMinIn,WindSpeedMaxMPH,WindSpeedAvgMPH,GustSpeedMaxMPH,PrecipitationSumIn
2013-1-1,29.0,26.3,23.0,20.0,17.5,14.0,71,69,68,29.78,29.76,9,6,12,0.00
2013-1-2,28.0,23.1,10.0,19.0,11.8,-51.0,83,68,4,30.01,29.84,10,3,13,0.00
2013-1-3,21.0,13.9,-2.0,16.0,5.8,-3.0,95,70,56,30.10,29.88,3,1,5,0.00
2013-1-4,41.0,29.9,21.0,29.0,22.6,16.0,95,75,58,29.90,29.76,4,1,10,0.00
2013-1-5,37.0,30.0,19.0,30.0,24.0,17.0,94,79,58,30.14,29.83,8,3,13,0.00
2013-1-6,43.0,30.7,22.0,34.0,27.9,21.0,100,89,66,30.07,29.84,5,1,7,0.00
2013-1-7,37.0,27.7,13.0,35.0,13.2,-70.0,98,77,1,30.29,29.90,4,1,8,0.00
2013-1-8,44.0,25.9,13.0,32.0,-11.7,-70.0,100,47,1,30.27,30.16,7,1,7,0.00
2013-1-9,43.0,27.5,16.0,35.0,-5.1,-43.0,98,40,5,30.29,29.96,6,1,16,0.00
2013-1-10,43.0,35.1,22.0,33.0,25.3,-41.0,100,73,4,30.46,30.09,10,4,20,0.00
2013-1-11,40.0,36.2,22.0,36.0,4.1,-56.0,100,45,1,30.44,30.04,9,4,11,0.00
2013-1-12,52.0,42.5,39.0,50.0,-6.0,-37.0,97,20,2,30.07,30.01,4,1,7,0.00
2013-1-13,51.0,45.4,42.0,2.0,-4.1,-13.0,17,12,7,30.07,29.91,6,1,10,0.00
2013-1-14,49.0,43.1,35.0,41.0,16.5,-25.0,82,47,4,30.25,29.81,8,3,12,0.00
2013-1-15,38.0,32.9,23.0,30.0,21.3,-64.0,98,73,1,30.25,30.14,3,0,5,0.00
2013-1-16,35.0,32.2,30.0,35.0,-3.0,-59.0,100,45,1,30.17,29.74,1,0,1,0.00
2013-1-17,38.0,33.2,29.0,34.0,-3.9,-58.0,94,36,1,29.96,29.76,9,1,10,0.00
2013-1-18,23.0,19.1,11.0,8.0,4.2,0.0,69,52,45,30.27,30.22,8,4,11,0.00
2013-1-19,45.0,41.0,37.0,30.0,28.4,25.0,67,60,55,29.99,29.84,8,4,11,0.00
2013-1-20,39.0,30.1,22.0,37.0,20.2,13.0,94,68,55,29.94,29.57,10,4,13,0.00
2013-1-21,31.0,20.8,15.0,21.0,9.5,-67.0,100,71,1,29.97,29.67,5,2,9,0.00
2013-1-22,19.0,13.6,3.0,16.0,4.7,-3.0,97,70,43,29.98,29.66,10,3,12,0.00
2013-1-23,10.0,3.3,-4.0,0.0,-5.4,-10.0,87,67,49,30.06,29.95,9,3,16,0.00
2013-1-24,15.0,2.1,-10.0,2.0,-5.5,-13.0,94,72,45,30.21,29.98,10,3,15,0.00
2013-1-25,21.0,10.3,1.0,13.0,1.6,-5.0,94,69,46,30.26,29.93,9,3,18,0.00
2013-1-26,21.0,10.7,0.0,11.0,4.7,-2.0,96,78,54,30.21,29.91,8,2,12,0.00
2013-1-27,27.0,10.9,-5.0,9.0,1.2,-7.0,98,68,35,30.40,30.17,8,1,8,0.00
2013-1-28,33.0,23.8,7.0,29.0,-0.6,-48.0,95,56,2,30.34,29.85,7,2,9,0.00
2013-1-29,42.0,36.0,29.0,39.0,-9.3,-57.0,98,30,1,30.09,29.87,10,2,17,0.00
2013-1-30,58.0,52.2,39.0,13.0,1.9,-11.0,17,13,10,29.93,29.45,11,6,15,0.00
2013-1-31,39.0,30.7,22.0,33.0,19.2,-64.0,99,72,1,29.54,29.12,10,3,20,0.00